Year,Month,Day,Hour,Minute,Value (Times are PST for temperature in C)
2009,07,21,00,00,17.50
2009,07,21,00,01,17.50
2009,07,21,00,02,17.40
2009,07,21,00,03,17.40
2009,07,21,00,04,17.40
2009,07,21,00,05,17.40
2009,07,21,00,06,17.40
2009,07,21,00,07,17.40
2009,07,21,00,08,17.40
2009,07,21,00,09,17.40
2009,07,21,00,10,17.40
2009,07,21,00,11,17.40
2009,07,21,00,12,17.40
2009,07,21,00,13,17.50
2009,07,21,00,14,17.50
2009,07,21,00,15,17.50
2009,07,21,00,16,17.50
2009,07,21,00,17,17.50
2009,07,21,00,18,17.50
2009,07,21,00,19,17.60
2009,07,21,00,20,17.60
2009,07,21,00,21,17.60
2009,07,21,00,22,17.60
2009,07,21,00,23,17.70
2009,07,21,00,24,17.70
2009,07,21,00,25,17.70
2009,07,21,00,26,17.70
2009,07,21,00,27,17.70
2009,07,21,00,28,17.80
2009,07,21,00,29,17.80
2009,07,21,00,30,17.70
2009,07,21,00,31,17.70
2009,07,21,00,32,17.70
2009,07,21,00,33,17.70
2009,07,21,00,34,17.70
2009,07,21,00,35,17.60
2009,07,21,00,36,17.60
2009,07,21,00,37,17.60
2009,07,21,00,38,17.60
2009,07,21,00,39,17.50
2009,07,21,00,40,17.50
2009,07,21,00,41,17.50
2009,07,21,00,42,17.50
2009,07,21,00,43,17.50
2009,07,21,00,44,17.40
2009,07,21,00,45,17.40
2009,07,21,00,46,17.40
2009,07,21,00,47,17.40
2009,07,21,00,48,17.30
2009,07,21,00,49,17.30
2009,07,21,00,50,17.30
2009,07,21,00,51,17.20
2009,07,21,00,52,17.20
2009,07,21,00,53,17.10
2009,07,21,00,54,17.10
2009,07,21,00,55,17.10
2009,07,21,00,56,17.10
2009,07,21,00,57,17.10
2009,07,21,00,58,17.00
2009,07,21,00,59,17.00
2009,07,21,01,00,17.00
2009,07,21,01,01,16.90
2009,07,21,01,02,16.90
2009,07,21,01,03,16.80
2009,07,21,01,04,16.80
2009,07,21,01,05,16.70
2009,07,21,01,06,16.70
2009,07,21,01,07,16.70
2009,07,21,01,08,16.60
2009,07,21,01,09,16.60
2009,07,21,01,10,16.60
2009,07,21,01,11,16.60
2009,07,21,01,12,16.50
2009,07,21,01,13,16.50
2009,07,21,01,14,16.50
2009,07,21,01,15,16.50
2009,07,21,01,16,16.60
2009,07,21,01,17,16.60
2009,07,21,01,18,16.60
2009,07,21,01,19,16.60
2009,07,21,01,20,16.50
2009,07,21,01,21,16.50
2009,07,21,01,22,16.50
2009,07,21,01,23,16.60
2009,07,21,01,24,16.60
2009,07,21,01,25,16.60
2009,07,21,01,26,16.60
2009,07,21,01,27,16.60
2009,07,21,01,28,16.60
2009,07,21,01,29,16.60
2009,07,21,01,30,16.60
2009,07,21,01,31,16.60
2009,07,21,01,32,16.60
2009,07,21,01,33,16.50
2009,07,21,01,34,16.50
2009,07,21,01,35,16.40
2009,07,21,01,36,16.40
2009,07,21,01,37,16.30
2009,07,21,01,38,16.30
2009,07,21,01,39,16.20
2009,07,21,01,40,16.10
2009,07,21,01,41,16.00
2009,07,21,01,42,16.00
2009,07,21,01,43,15.90
2009,07,21,01,44,15.80
2009,07,21,01,45,15.80
2009,07,21,01,46,15.80
2009,07,21,01,47,15.70
2009,07,21,01,48,15.70
2009,07,21,01,49,15.70
2009,07,21,01,50,15.60
2009,07,21,01,51,15.60
2009,07,21,01,52,15.60
2009,07,21,01,53,15.50
2009,07,21,01,54,15.50
2009,07,21,01,55,15.40
2009,07,21,01,56,15.40
2009,07,21,01,57,15.30
2009,07,21,01,58,15.30
2009,07,21,01,59,15.30
2009,07,21,02,00,15.30
2009,07,21,02,01,15.20
2009,07,21,02,02,15.20
2009,07,21,02,03,15.20
2009,07,21,02,04,15.20
2009,07,21,02,05,15.20
2009,07,21,02,06,15.10
2009,07,21,02,07,15.10
2009,07,21,02,08,15.00
2009,07,21,02,09,15.00
2009,07,21,02,10,15.00
2009,07,21,02,11,15.00
2009,07,21,02,12,15.00
2009,07,21,02,13,15.00
2009,07,21,02,14,15.00
2009,07,21,02,15,15.00
2009,07,21,02,16,15.00
2009,07,21,02,17,14.90
2009,07,21,02,18,14.80
2009,07,21,02,19,14.80
2009,07,21,02,20,14.80
2009,07,21,02,21,14.70
2009,07,21,02,22,14.70
2009,07,21,02,23,14.60
2009,07,21,02,24,14.60
2009,07,21,02,25,14.50
2009,07,21,02,26,14.50
2009,07,21,02,27,14.50
2009,07,21,02,28,14.40
2009,07,21,02,29,14.40
2009,07,21,02,30,14.40
2009,07,21,02,31,14.30
2009,07,21,02,32,14.30
2009,07,21,02,33,14.30
2009,07,21,02,34,14.30
2009,07,21,02,35,14.30
2009,07,21,02,36,14.20
2009,07,21,02,37,14.20
2009,07,21,02,38,14.20
2009,07,21,02,39,14.20
2009,07,21,02,40,14.20
2009,07,21,02,41,14.20
2009,07,21,02,42,14.20
2009,07,21,02,43,14.20
2009,07,21,02,44,14.20
2009,07,21,02,45,14.20
2009,07,21,02,46,14.20
2009,07,21,02,47,14.20
2009,07,21,02,48,14.20
2009,07,21,02,49,14.20
2009,07,21,02,50,14.20
2009,07,21,02,51,14.20
2009,07,21,02,52,14.20
2009,07,21,02,53,14.20
2009,07,21,02,54,14.10
2009,07,21,02,55,14.10
2009,07,21,02,56,14.10
2009,07,21,02,57,14.10
2009,07,21,02,58,14.10
2009,07,21,02,59,14.10
2009,07,21,03,00,14.10
2009,07,21,03,01,14.10
2009,07,21,03,02,14.10
2009,07,21,03,03,14.10
2009,07,21,03,04,14.10
2009,07,21,03,05,14.00
2009,07,21,03,06,14.00
2009,07,21,03,07,14.00
2009,07,21,03,08,14.00
2009,07,21,03,09,14.00
2009,07,21,03,10,13.90
2009,07,21,03,11,13.90
2009,07,21,03,12,13.90
2009,07,21,03,13,13.90
2009,07,21,03,14,13.90
2009,07,21,03,15,13.90
2009,07,21,03,16,13.90
2009,07,21,03,17,13.80
2009,07,21,03,18,13.80
2009,07,21,03,19,13.80
2009,07,21,03,20,13.80
2009,07,21,03,21,13.80
2009,07,21,03,22,13.80
2009,07,21,03,23,13.80
2009,07,21,03,24,13.80
2009,07,21,03,25,13.80
2009,07,21,03,26,13.70
2009,07,21,03,27,13.70
2009,07,21,03,28,13.70
2009,07,21,03,29,13.70
2009,07,21,03,30,13.60
2009,07,21,03,31,13.60
2009,07,21,03,32,13.60
2009,07,21,03,33,13.60
2009,07,21,03,34,13.60
2009,07,21,03,35,13.60
2009,07,21,03,36,13.50
2009,07,21,03,37,13.50
2009,07,21,03,38,13.50
2009,07,21,03,39,13.50
2009,07,21,03,40,13.40
2009,07,21,03,41,13.40
2009,07,21,03,42,13.40
2009,07,21,03,43,13.40
2009,07,21,03,44,13.40
2009,07,21,03,45,13.40
2009,07,21,03,46,13.40
2009,07,21,03,47,13.40
2009,07,21,03,48,13.30
2009,07,21,03,49,13.30
2009,07,21,03,50,13.30
2009,07,21,03,51,13.30
2009,07,21,03,52,13.30
2009,07,21,03,53,13.30
2009,07,21,03,54,13.30
2009,07,21,03,55,13.30
2009,07,21,03,56,13.30
2009,07,21,03,57,13.30
2009,07,21,03,58,13.30
2009,07,21,03,59,13.30
2009,07,21,04,00,13.30
2009,07,21,04,01,13.30
2009,07,21,04,02,13.30
2009,07,21,04,03,13.30
2009,07,21,04,04,13.30
2009,07,21,04,09,13.30
2009,07,21,04,10,13.30
2009,07,21,04,11,13.30
2009,07,21,04,12,13.30
2009,07,21,04,13,13.20
2009,07,21,04,14,13.20
2009,07,21,04,15,13.20
2009,07,21,04,16,13.20
2009,07,21,04,17,13.20
2009,07,21,04,18,13.20
2009,07,21,04,19,13.20
2009,07,21,04,20,13.30
2009,07,21,04,21,13.30
2009,07,21,04,22,13.30
2009,07,21,04,23,13.30
2009,07,21,04,24,13.30
2009,07,21,04,25,13.30
2009,07,21,04,26,13.30
2009,07,21,04,27,13.30
2009,07,21,04,28,13.30
2009,07,21,04,29,13.20
2009,07,21,04,30,13.20
2009,07,21,04,31,13.20
2009,07,21,04,32,13.20
2009,07,21,04,33,13.20
2009,07,21,04,34,13.20
2009,07,21,04,35,13.20
2009,07,21,04,36,13.20
2009,07,21,04,37,13.20
2009,07,21,04,38,13.20
2009,07,21,04,39,13.10
2009,07,21,04,40,13.10
2009,07,21,04,41,13.10
2009,07,21,04,42,13.10
2009,07,21,04,43,13.10
2009,07,21,04,44,13.10
2009,07,21,04,45,13.10
2009,07,21,04,46,13.10
2009,07,21,04,47,13.10
2009,07,21,04,48,13.10
2009,07,21,04,49,13.10
2009,07,21,04,50,13.10
2009,07,21,04,51,13.10
2009,07,21,04,52,13.10
2009,07,21,04,53,13.10
2009,07,21,04,54,13.10
2009,07,21,04,55,13.10
2009,07,21,04,56,13.10
2009,07,21,04,57,13.20
2009,07,21,04,58,13.20
2009,07,21,04,59,13.20
2009,07,21,05,00,13.20
2009,07,21,05,01,13.20
2009,07,21,05,02,13.20
2009,07,21,05,03,13.20
2009,07,21,05,04,13.30
2009,07,21,05,05,13.30
2009,07,21,05,06,13.30
2009,07,21,05,07,13.30
2009,07,21,05,08,13.30
2009,07,21,05,09,13.30
2009,07,21,05,10,13.30
2009,07,21,05,11,13.30
2009,07,21,05,12,13.30
2009,07,21,05,13,13.30
2009,07,21,05,14,13.40
2009,07,21,05,15,13.40
2009,07,21,05,16,13.40
2009,07,21,05,17,13.40
2009,07,21,05,18,13.40
2009,07,21,05,19,13.40
2009,07,21,05,20,13.40
2009,07,21,05,21,13.40
2009,07,21,05,22,13.40
2009,07,21,05,23,13.40
2009,07,21,05,24,13.40
2009,07,21,05,25,13.40
2009,07,21,05,26,13.40
2009,07,21,05,27,13.40
2009,07,21,05,28,13.40
2009,07,21,05,29,13.40
2009,07,21,05,30,13.40
2009,07,21,05,31,13.40
2009,07,21,05,32,13.30
2009,07,21,05,33,13.40
2009,07,21,05,34,13.30
2009,07,21,05,35,13.30
2009,07,21,05,36,13.30
2009,07,21,05,37,13.30
2009,07,21,05,38,13.30
2009,07,21,05,39,13.30
2009,07,21,05,40,13.30
2009,07,21,05,41,13.30
2009,07,21,05,42,13.20
2009,07,21,05,43,13.20
2009,07,21,05,44,13.20
2009,07,21,05,45,13.20
2009,07,21,05,46,13.20
2009,07,21,05,47,13.10
2009,07,21,05,48,13.10
2009,07,21,05,49,13.10
2009,07,21,05,50,13.10
2009,07,21,05,51,13.10
2009,07,21,05,52,13.10
2009,07,21,05,53,13.10
2009,07,21,05,54,13.10
2009,07,21,05,55,13.00
2009,07,21,05,56,13.00
2009,07,21,05,57,13.10
2009,07,21,05,58,13.10
2009,07,21,05,59,13.10
2009,07,21,06,00,13.10
2009,07,21,06,01,13.10
2009,07,21,06,02,13.10
2009,07,21,06,03,13.10
2009,07,21,06,04,13.10
2009,07,21,06,05,13.10
2009,07,21,06,06,13.10
2009,07,21,06,07,13.20
2009,07,21,06,08,13.20
2009,07,21,06,09,13.20
2009,07,21,06,10,13.20
2009,07,21,06,11,13.20
2009,07,21,06,12,13.30
2009,07,21,06,13,13.30
2009,07,21,06,14,13.30
2009,07,21,06,15,13.40
2009,07,21,06,16,13.40
2009,07,21,06,17,13.40
2009,07,21,06,18,13.50
2009,07,21,06,19,13.50
2009,07,21,06,20,13.60
2009,07,21,06,21,13.60
2009,07,21,06,22,13.70
2009,07,21,06,23,13.70
2009,07,21,06,24,13.80
2009,07,21,06,25,13.90
2009,07,21,06,26,13.90
2009,07,21,06,27,14.00
2009,07,21,06,28,14.10
2009,07,21,06,29,14.20
2009,07,21,06,30,14.20
2009,07,21,06,31,14.30
2009,07,21,06,32,14.40
2009,07,21,06,33,14.50
2009,07,21,06,34,14.60
2009,07,21,06,35,14.70
2009,07,21,06,36,14.80
2009,07,21,06,37,14.90
2009,07,21,06,38,15.00
2009,07,21,06,39,15.00
2009,07,21,06,40,15.00
2009,07,21,06,41,15.10
2009,07,21,06,42,15.20
2009,07,21,06,43,15.30
2009,07,21,06,44,15.40
2009,07,21,06,45,15.50
2009,07,21,06,46,15.60
2009,07,21,06,47,15.70
2009,07,21,06,48,15.80
2009,07,21,06,49,15.90
2009,07,21,06,50,16.10
2009,07,21,06,51,16.20
2009,07,21,06,52,16.20
2009,07,21,06,53,16.30
2009,07,21,06,54,16.30
2009,07,21,06,55,16.40
2009,07,21,06,56,16.40
2009,07,21,06,57,16.50
2009,07,21,06,58,16.50
2009,07,21,06,59,16.60
2009,07,21,07,00,16.60
2009,07,21,07,01,16.60
2009,07,21,07,02,16.60
2009,07,21,07,03,16.60
2009,07,21,07,04,16.70
2009,07,21,07,05,16.70
2009,07,21,07,06,16.70
2009,07,21,07,07,16.80
2009,07,21,07,08,16.80
2009,07,21,07,09,16.80
2009,07,21,07,10,16.90
2009,07,21,07,11,16.90
2009,07,21,07,12,17.00
2009,07,21,07,13,17.00
2009,07,21,07,14,17.10
2009,07,21,07,15,17.20
2009,07,21,07,16,17.30
2009,07,21,07,17,17.40
2009,07,21,07,18,17.50
2009,07,21,07,19,17.60
2009,07,21,07,20,17.70
2009,07,21,07,21,17.70
2009,07,21,07,22,17.80
2009,07,21,07,23,17.80
2009,07,21,07,24,17.90
2009,07,21,07,25,17.90
2009,07,21,07,26,18.00
2009,07,21,07,27,18.00
2009,07,21,07,28,18.10
2009,07,21,07,29,18.10
2009,07,21,07,30,18.10
2009,07,21,07,31,18.10
2009,07,21,07,32,18.00
2009,07,21,07,33,18.00
2009,07,21,07,34,18.00
2009,07,21,07,35,18.00
2009,07,21,07,36,18.00
2009,07,21,07,37,18.10
2009,07,21,07,38,18.10
2009,07,21,07,39,18.20
2009,07,21,07,40,18.20
2009,07,21,07,41,18.20
2009,07,21,07,42,18.30
2009,07,21,07,43,18.30
2009,07,21,07,44,18.40
2009,07,21,07,45,18.50
2009,07,21,07,46,18.50
2009,07,21,07,47,18.60
2009,07,21,07,48,18.70
2009,07,21,07,49,18.70
2009,07,21,07,50,18.80
2009,07,21,07,51,18.80
2009,07,21,07,52,18.90
2009,07,21,07,53,18.90
2009,07,21,07,54,19.00
2009,07,21,07,55,19.10
2009,07,21,07,56,19.10
2009,07,21,07,57,19.20
2009,07,21,07,58,19.20
2009,07,21,07,59,19.30
2009,07,21,08,00,19.30
2009,07,21,08,01,19.40
2009,07,21,08,02,19.40
2009,07,21,08,03,19.50
2009,07,21,08,04,19.50
2009,07,21,08,05,19.60
2009,07,21,08,06,19.60
2009,07,21,08,07,19.50
2009,07,21,08,08,19.60
2009,07,21,08,09,19.50
2009,07,21,08,10,19.50
2009,07,21,08,11,19.50
2009,07,21,08,12,19.50
2009,07,21,08,13,19.60
2009,07,21,08,14,19.60
2009,07,21,08,15,19.70
2009,07,21,08,16,19.70
2009,07,21,08,17,19.70
2009,07,21,08,18,19.80
2009,07,21,08,19,19.80
2009,07,21,08,20,19.80
2009,07,21,08,21,19.90
2009,07,21,08,22,20.00
2009,07,21,08,23,20.00
2009,07,21,08,24,20.10
2009,07,21,08,25,20.10
2009,07,21,08,26,20.20
2009,07,21,08,27,20.20
2009,07,21,08,28,20.30
2009,07,21,08,29,20.30
2009,07,21,08,30,20.40
2009,07,21,08,31,20.40
2009,07,21,08,32,20.40
2009,07,21,08,33,20.40
2009,07,21,08,34,20.40
2009,07,21,08,35,20.50
2009,07,21,08,36,20.40
2009,07,21,08,37,20.40
2009,07,21,08,38,20.30
2009,07,21,08,39,20.30
2009,07,21,08,40,20.30
2009,07,21,08,41,20.20
2009,07,21,08,42,20.10
2009,07,21,08,43,20.10
2009,07,21,08,44,20.00
2009,07,21,08,45,20.00
2009,07,21,08,46,20.00
2009,07,21,08,47,19.90
2009,07,21,08,48,19.90
2009,07,21,08,49,19.90
2009,07,21,08,50,19.80
2009,07,21,08,51,19.80
2009,07,21,08,52,19.80
2009,07,21,08,53,19.80
2009,07,21,08,54,19.90
2009,07,21,08,55,19.90
2009,07,21,08,56,20.00
2009,07,21,08,57,20.00
2009,07,21,08,58,20.00
2009,07,21,08,59,20.00
2009,07,21,09,00,20.00
2009,07,21,09,01,20.10
2009,07,21,09,02,20.20
2009,07,21,09,03,20.20
2009,07,21,09,04,20.30
2009,07,21,09,05,20.30
2009,07,21,09,06,20.30
2009,07,21,09,07,20.30
2009,07,21,09,08,20.40
2009,07,21,09,09,20.40
2009,07,21,09,10,20.50
2009,07,21,09,11,20.50
2009,07,21,09,12,20.60
2009,07,21,09,13,20.70
2009,07,21,09,14,20.80
2009,07,21,09,15,21.00
2009,07,21,09,16,21.10
2009,07,21,09,17,21.20
2009,07,21,09,18,21.20
2009,07,21,09,19,21.20
2009,07,21,09,20,21.20
2009,07,21,09,21,21.20
2009,07,21,09,22,21.20
2009,07,21,09,23,21.10
2009,07,21,09,24,21.00
2009,07,21,09,25,20.90
2009,07,21,09,26,20.90
2009,07,21,09,27,20.90
2009,07,21,09,28,20.90
2009,07,21,09,29,20.90
2009,07,21,09,30,20.80
2009,07,21,09,31,20.80
2009,07,21,09,32,20.80
2009,07,21,09,33,20.70
2009,07,21,09,34,20.70
2009,07,21,09,35,20.70
2009,07,21,09,36,20.70
2009,07,21,09,37,20.60
2009,07,21,09,38,20.60
2009,07,21,09,39,20.60
2009,07,21,09,40,20.60
2009,07,21,09,41,20.60
2009,07,21,09,42,20.60
2009,07,21,09,43,20.60
2009,07,21,09,44,20.60
2009,07,21,09,45,20.70
2009,07,21,09,46,20.70
2009,07,21,09,47,20.70
2009,07,21,09,48,20.80
2009,07,21,09,49,20.80
2009,07,21,09,50,20.90
2009,07,21,09,51,21.00
2009,07,21,09,52,21.10
2009,07,21,09,53,21.10
2009,07,21,09,54,21.20
2009,07,21,09,55,21.40
2009,07,21,09,56,21.40
2009,07,21,09,57,21.50
2009,07,21,09,58,21.50
2009,07,21,09,59,21.60
2009,07,21,10,00,21.60
2009,07,21,10,01,21.70
2009,07,21,10,02,21.70
2009,07,21,10,03,21.70
2009,07,21,10,04,21.80
2009,07,21,10,05,21.70
2009,07,21,10,06,21.70
2009,07,21,10,07,21.70
2009,07,21,10,08,21.70
2009,07,21,10,09,21.70
2009,07,21,10,10,21.80
2009,07,21,10,11,21.80
2009,07,21,10,12,21.80
2009,07,21,10,13,21.80
2009,07,21,10,14,21.80
2009,07,21,10,15,21.80
2009,07,21,10,16,21.70
2009,07,21,10,17,21.70
2009,07,21,10,18,21.70
2009,07,21,10,19,21.60
2009,07,21,10,20,21.60
2009,07,21,10,21,21.60
2009,07,21,10,22,21.60
2009,07,21,10,23,21.60
2009,07,21,10,24,21.70
2009,07,21,10,25,21.70
2009,07,21,10,26,21.70
2009,07,21,10,27,21.70
2009,07,21,10,28,21.70
2009,07,21,10,29,21.80
2009,07,21,10,30,21.80
2009,07,21,10,31,21.80
2009,07,21,10,32,21.80
2009,07,21,10,33,21.80
2009,07,21,10,34,21.80
2009,07,21,10,35,21.90
2009,07,21,10,36,22.00
2009,07,21,10,37,22.00
2009,07,21,10,38,22.00
2009,07,21,10,39,22.00
2009,07,21,10,40,22.00
2009,07,21,10,41,22.10
2009,07,21,10,42,22.10
2009,07,21,10,43,22.00
2009,07,21,10,44,21.90
2009,07,21,10,45,21.80
2009,07,21,10,46,21.70
2009,07,21,10,47,21.60
2009,07,21,10,48,21.60
2009,07,21,10,49,21.70
2009,07,21,10,50,21.80
2009,07,21,10,51,21.80
2009,07,21,10,52,21.90
2009,07,21,10,53,22.00
2009,07,21,10,54,22.10
2009,07,21,10,55,22.20
2009,07,21,10,56,22.30
2009,07,21,10,57,22.40
2009,07,21,10,58,22.40
2009,07,21,10,59,22.40
2009,07,21,11,00,22.50
2009,07,21,11,01,22.50
2009,07,21,11,02,22.60
2009,07,21,11,03,22.70
2009,07,21,11,04,22.70
2009,07,21,11,05,22.70
2009,07,21,11,06,22.80
2009,07,21,11,07,22.80
2009,07,21,11,08,22.80
2009,07,21,11,09,22.70
2009,07,21,11,10,22.70
2009,07,21,11,11,22.80
2009,07,21,11,12,22.90
2009,07,21,11,13,22.90
2009,07,21,11,14,22.90
2009,07,21,11,15,22.90
2009,07,21,11,16,23.00
2009,07,21,11,17,23.00
2009,07,21,11,18,22.90
2009,07,21,11,19,22.70
2009,07,21,11,20,22.70
2009,07,21,11,21,22.70
2009,07,21,11,22,22.70
2009,07,21,11,23,22.90
2009,07,21,11,24,23.10
2009,07,21,11,25,23.20
2009,07,21,11,26,23.10
2009,07,21,11,27,23.10
2009,07,21,11,28,23.10
2009,07,21,11,29,23.10
2009,07,21,11,30,23.10
2009,07,21,11,31,23.00
2009,07,21,11,32,23.00
2009,07,21,11,33,23.10
2009,07,21,11,34,23.20
2009,07,21,11,35,23.30
2009,07,21,11,36,23.40
2009,07,21,11,37,23.40
2009,07,21,11,38,23.40
2009,07,21,11,39,23.50
2009,07,21,11,40,23.60
2009,07,21,11,41,23.60
2009,07,21,11,42,23.70
2009,07,21,11,43,23.60
2009,07,21,11,44,23.50
2009,07,21,11,45,23.30
2009,07,21,11,46,23.30
2009,07,21,11,47,23.30
2009,07,21,11,48,23.40
2009,07,21,11,49,23.50
2009,07,21,11,50,23.60
2009,07,21,11,51,23.60
2009,07,21,11,52,23.70
2009,07,21,11,53,23.70
2009,07,21,11,54,23.70
2009,07,21,11,55,23.60
2009,07,21,11,56,23.50
2009,07,21,11,57,23.50
2009,07,21,11,58,23.40
2009,07,21,11,59,23.40
2009,07,21,12,00,23.50
2009,07,21,12,01,23.40
2009,07,21,12,02,23.40
2009,07,21,12,03,23.30
2009,07,21,12,04,23.40
2009,07,21,12,05,23.40
2009,07,21,12,06,23.40
2009,07,21,12,07,23.40
2009,07,21,12,08,23.40
2009,07,21,12,09,23.30
2009,07,21,12,10,23.20
2009,07,21,12,11,23.10
2009,07,21,12,12,23.10
2009,07,21,12,13,23.00
2009,07,21,12,14,23.10
2009,07,21,12,15,23.10
2009,07,21,12,16,23.10
2009,07,21,12,17,23.20
2009,07,21,12,18,23.20
2009,07,21,12,19,23.30
2009,07,21,12,20,23.30
2009,07,21,12,21,23.30
2009,07,21,12,22,23.40
2009,07,21,12,23,23.30
2009,07,21,12,24,23.30
2009,07,21,12,25,23.30
2009,07,21,12,26,23.30
2009,07,21,12,27,23.30
2009,07,21,12,28,23.30
2009,07,21,12,29,23.40
2009,07,21,12,30,23.50
2009,07,21,12,31,23.70
2009,07,21,12,32,23.80
2009,07,21,12,33,23.80
2009,07,21,12,34,23.90
2009,07,21,12,35,23.90
2009,07,21,12,36,23.90
2009,07,21,12,37,23.90
2009,07,21,12,38,23.90
2009,07,21,12,39,23.90
2009,07,21,12,40,23.90
2009,07,21,12,41,23.90
2009,07,21,12,42,24.00
2009,07,21,12,43,24.00
2009,07,21,12,44,24.10
2009,07,21,12,45,24.20
2009,07,21,12,46,24.30
2009,07,21,12,47,24.30
2009,07,21,12,48,24.30
2009,07,21,12,49,24.30
2009,07,21,12,50,24.30
2009,07,21,12,51,24.30
2009,07,21,12,52,24.20
2009,07,21,12,53,24.20
2009,07,21,12,54,24.30
2009,07,21,12,55,24.20
2009,07,21,12,56,24.10
2009,07,21,12,57,24.00
2009,07,21,12,58,24.00
2009,07,21,12,59,24.00
2009,07,21,13,00,24.00
2009,07,21,13,01,23.90
2009,07,21,13,02,23.90
2009,07,21,13,03,23.90
2009,07,21,13,04,23.90
2009,07,21,13,05,24.00
2009,07,21,13,06,24.10
2009,07,21,13,07,24.20
2009,07,21,13,08,24.30
2009,07,21,13,09,24.40
2009,07,21,13,10,24.50
2009,07,21,13,11,24.60
2009,07,21,13,12,24.60
2009,07,21,13,13,24.60
2009,07,21,13,14,24.70
2009,07,21,13,15,24.70
2009,07,21,13,16,24.70
2009,07,21,13,17,24.80
2009,07,21,13,18,24.80
2009,07,21,13,19,24.80
2009,07,21,13,20,24.80
2009,07,21,13,21,24.70
2009,07,21,13,22,24.70
2009,07,21,13,23,24.70
2009,07,21,13,24,24.70
2009,07,21,13,25,24.70
2009,07,21,13,26,24.70
2009,07,21,13,27,24.60
2009,07,21,13,28,24.50
2009,07,21,13,29,24.40
2009,07,21,13,30,24.30
2009,07,21,13,31,24.30
2009,07,21,13,32,24.30
2009,07,21,13,33,24.30
2009,07,21,13,34,24.20
2009,07,21,13,35,24.20
2009,07,21,13,36,24.10
2009,07,21,13,37,24.10
2009,07,21,13,38,24.10
2009,07,21,13,39,24.10
2009,07,21,13,40,24.20
2009,07,21,13,41,24.20
2009,07,21,13,42,24.20
2009,07,21,13,43,24.20
2009,07,21,13,44,24.30
2009,07,21,13,45,24.30
2009,07,21,13,46,24.30
2009,07,21,13,47,24.20
2009,07,21,13,48,24.10
2009,07,21,13,49,24.00
2009,07,21,13,50,23.90
2009,07,21,13,51,23.80
2009,07,21,13,52,23.70
2009,07,21,13,53,23.70
2009,07,21,13,54,23.70
2009,07,21,13,55,23.70
2009,07,21,13,56,23.70
2009,07,21,13,57,23.80
2009,07,21,13,58,23.90
2009,07,21,13,59,23.90
2009,07,21,14,00,24.00
2009,07,21,14,01,24.10
2009,07,21,14,02,24.10
2009,07,21,14,03,24.20
2009,07,21,14,04,24.20
2009,07,21,14,05,24.30
2009,07,21,14,06,24.30
2009,07,21,14,07,24.30
2009,07,21,14,08,24.30
2009,07,21,14,09,24.30
2009,07,21,14,10,24.30
2009,07,21,14,11,24.30
2009,07,21,14,12,24.40
2009,07,21,14,13,24.40
2009,07,21,14,14,24.40
2009,07,21,14,15,24.50
2009,07,21,14,16,24.50
2009,07,21,14,17,24.60
2009,07,21,14,18,24.70
2009,07,21,14,19,24.80
2009,07,21,14,20,24.80
2009,07,21,14,21,24.80
2009,07,21,14,22,24.80
2009,07,21,14,23,24.80
2009,07,21,14,24,24.80
2009,07,21,14,25,24.80
2009,07,21,14,26,24.80
2009,07,21,14,27,24.80
2009,07,21,14,28,24.80
2009,07,21,14,29,24.80
2009,07,21,14,30,24.90
2009,07,21,14,31,24.90
2009,07,21,14,32,24.90
2009,07,21,14,33,24.70
2009,07,21,14,34,24.60
2009,07,21,14,35,24.40
2009,07,21,14,36,24.20
2009,07,21,14,37,24.20
2009,07,21,14,38,24.10
2009,07,21,14,39,24.00
2009,07,21,14,40,24.00
2009,07,21,14,41,24.00
2009,07,21,14,42,24.00
2009,07,21,14,43,23.90
2009,07,21,14,44,23.80
2009,07,21,14,45,23.90
2009,07,21,14,46,23.90
2009,07,21,14,47,23.90
2009,07,21,14,48,23.90
2009,07,21,14,49,24.00
2009,07,21,14,50,23.90
2009,07,21,14,51,23.90
2009,07,21,14,52,23.80
2009,07,21,14,53,23.80
2009,07,21,14,54,23.80
2009,07,21,14,55,23.70
2009,07,21,14,56,23.80
2009,07,21,14,57,23.80
2009,07,21,14,58,23.80
2009,07,21,14,59,23.80
2009,07,21,15,00,23.90
2009,07,21,15,01,23.90
2009,07,21,15,02,23.90
2009,07,21,15,03,23.90
2009,07,21,15,04,24.00
2009,07,21,15,05,24.10
2009,07,21,15,06,24.20
2009,07,21,15,07,24.30
2009,07,21,15,08,24.30
2009,07,21,15,09,24.30
2009,07,21,15,10,24.30
2009,07,21,15,11,24.30
2009,07,21,15,12,24.30
2009,07,21,15,13,24.40
2009,07,21,15,14,24.40
2009,07,21,15,15,24.40
2009,07,21,15,16,24.40
2009,07,21,15,17,24.50
2009,07,21,15,18,24.60
2009,07,21,15,19,24.70
2009,07,21,15,20,24.70
2009,07,21,15,21,24.80
2009,07,21,15,22,24.80
2009,07,21,15,23,24.80
2009,07,21,15,24,24.80
2009,07,21,15,25,24.80
2009,07,21,15,26,24.80
2009,07,21,15,27,24.80
2009,07,21,15,28,24.80
2009,07,21,15,29,24.80
2009,07,21,15,30,24.80
2009,07,21,15,31,24.80
2009,07,21,15,32,24.80
2009,07,21,15,33,24.80
2009,07,21,15,34,24.80
2009,07,21,15,35,24.80
2009,07,21,15,36,24.80
2009,07,21,15,37,24.80
2009,07,21,15,38,24.80
2009,07,21,15,39,24.70
2009,07,21,15,40,24.70
2009,07,21,15,41,24.80
2009,07,21,15,42,24.80
2009,07,21,15,43,24.80
2009,07,21,15,44,24.80
2009,07,21,15,45,24.80
2009,07,21,15,46,24.80
2009,07,21,15,47,24.70
2009,07,21,15,48,24.70
2009,07,21,15,49,24.70
2009,07,21,15,50,24.70
2009,07,21,15,51,24.60
2009,07,21,15,52,24.50
2009,07,21,15,53,24.50
2009,07,21,15,54,24.50
2009,07,21,15,55,24.60
2009,07,21,15,56,24.60
2009,07,21,15,57,24.60
2009,07,21,15,58,24.50
2009,07,21,15,59,24.50
2009,07,21,16,00,24.60
2009,07,21,16,01,24.60
2009,07,21,16,02,24.70
2009,07,21,16,03,24.70
2009,07,21,16,04,24.80
2009,07,21,16,05,24.80
2009,07,21,16,06,24.80
2009,07,21,16,07,24.80
2009,07,21,16,08,24.80
2009,07,21,16,09,24.80
2009,07,21,16,10,24.80
2009,07,21,16,11,24.80
2009,07,21,16,12,24.80
2009,07,21,16,13,24.90
2009,07,21,16,14,24.90
2009,07,21,16,15,24.90
2009,07,21,16,16,24.90
2009,07,21,16,17,24.90
2009,07,21,16,18,25.00
2009,07,21,16,19,25.10
2009,07,21,16,20,25.10
2009,07,21,16,21,25.20
2009,07,21,16,22,25.30
2009,07,21,16,23,25.30
2009,07,21,16,24,25.40
2009,07,21,16,25,25.50
2009,07,21,16,26,25.50
2009,07,21,16,27,25.60
2009,07,21,16,28,25.70
2009,07,21,16,29,25.80
2009,07,21,16,30,25.90
2009,07,21,16,31,26.00
2009,07,21,16,32,26.10
2009,07,21,16,33,26.10
2009,07,21,16,34,26.10
2009,07,21,16,35,26.20
2009,07,21,16,36,26.30
2009,07,21,16,37,26.40
2009,07,21,16,38,26.60
2009,07,21,16,39,26.70
2009,07,21,16,40,26.80
2009,07,21,16,41,26.90
2009,07,21,16,42,27.00
2009,07,21,16,43,27.10
2009,07,21,16,44,27.20
2009,07,21,16,45,27.30
2009,07,21,16,46,27.30
2009,07,21,16,47,27.30
2009,07,21,16,48,27.30
2009,07,21,16,49,27.30
2009,07,21,16,50,27.20
2009,07,21,16,51,27.10
2009,07,21,16,52,26.90
2009,07,21,16,53,26.80
2009,07,21,16,54,26.60
2009,07,21,16,55,26.50
2009,07,21,16,56,26.30
2009,07,21,16,57,26.20
2009,07,21,16,58,26.20
2009,07,21,16,59,26.10
2009,07,21,17,00,26.00
2009,07,21,17,01,25.90
2009,07,21,17,02,25.90
2009,07,21,17,03,25.90
2009,07,21,17,04,26.00
2009,07,21,17,05,26.10
2009,07,21,17,06,26.20
2009,07,21,17,07,26.30
2009,07,21,17,08,26.30
2009,07,21,17,09,26.30
2009,07,21,17,10,26.30
2009,07,21,17,11,26.20
2009,07,21,17,12,26.00
2009,07,21,17,13,25.90
2009,07,21,17,14,25.90
2009,07,21,17,15,25.90
2009,07,21,17,16,25.90
2009,07,21,17,17,25.90
2009,07,21,17,18,25.90
2009,07,21,17,19,26.00
2009,07,21,17,20,26.10
2009,07,21,17,21,26.20
2009,07,21,17,22,26.20
2009,07,21,17,23,26.20